This demonstration page uses our WeatherBlox Daily Observations layout. Learn more.

Left ArrowRight Arrow

Hourly Observations for November 6, 2015

Temp ( °F °C ) Dew Point ( °F °C ) Humidity (%) Winds ( mph kmh ) Pressure ( in mb ) Visibility ( mi km ) Precip ( " mm )
12:53 am 00:53 Clear 39 3.9 34 1.1 82 82 W 8 13 30.06 1018 10 16 0.00 0.00
1:53 am 01:53 Clear 37 2.8 33 0.6 86 86 W 7 11 30.06 1018 10 16 0.00 0.00
2:53 am 02:53 Clear 37 2.8 33 0.6 86 86 W 8 13 30.07 1018 10 16 0.00 0.00
3:53 am 03:53 Clear 35 1.7 32 0 89 89 WNW 6 9 30.08 1019 10 16 0.00 0.00
4:53 am 04:53 Clear 35 1.7 31 -0.6 85 85 WSW 5 7 30.10 1019 10 16 0.00 0.00
5:53 am 05:53 Clear 34 1.1 30 -1.1 85 85 W 7 11 30.12 1020 10 16 0.00 0.00
6:53 am 06:53 Clear 37 2.8 32 0 82 82 WNW 5 7 30.14 1021 10 16 0.00 0.00
7:53 am 07:53 Sunny 36 2.2 32 0 86 86 W 6 9 30.18 1022 10 16 0.00 0.00
8:53 am 08:53 Sunny 40 4.4 34 1.1 79 79 NW 3 6 30.21 1023 10 16 0.00 0.00
9:53 am 09:53 Sunny 45 7.2 34 1.1 66 66 N 9 15 30.23 1024 10 16 0.00 0.00
10:53 am 10:53 Mostly Sunny 46 7.8 33 0.6 61 61 NNE 8 13 30.23 1024 10 16 0.00 0.00
11:53 am 11:53 Sunny 49 9.4 32 0 52 52 N 7 11 30.23 1024 10 16 0.00 0.00
12:53 pm 12:53 Partly Cloudy 50 10 32 0 50 50 N 7 11 30.22 1023 10 16 0.00 0.00
1:53 pm 13:53 Cloudy 50 10 32 0 50 50 NNW 7 11 30.22 1023 10 16 0.00 0.00
2:53 pm 14:53 Mostly Cloudy 50 10 31 -0.6 48 48 NW 12 19 30.22 1024 10 16 0.00 0.00
3:53 pm 15:53 Cloudy 48 8.9 32 0 54 54 NW 7 11 30.24 1024 10 16 0.00 0.00
4:53 pm 16:53 Cloudy 46 7.8 36 2.2 68 68 NNW 6 9 30.25 1024 10 16 0.00 0.03
5:53 pm 17:53 Mostly Cloudy 44 6.7 36 2.2 73 73 Calm 30.26 1025 10 16 0.00 0.00
6:53 pm 18:53 Mostly Clear 43 6.1 35 1.7 74 74 WNW 3 6 30.29 1026 10 16 0.00 0.00
7:53 pm 19:53 Cloudy 43 6.1 35 1.7 74 74 W 6 9 30.32 1027 10 16 0.00 0.00
8:53 pm 20:53 Cloudy 44 6.7 36 2.2 73 73 W 6 9 30.33 1027 10 16 0.00 0.00
9:53 pm 21:53 Cloudy 42 5.6 36 2.2 79 79 Calm 30.33 1027 10 16 0.00 0.00
10:53 pm 22:53 Clear 38 3.3 33 0.6 83 83 WNW 6 9 30.35 1028 10 16 0.00 0.00
11:53 pm 23:53 Clear 35 1.7 31 -0.6 85 85 W 3 6 30.36 1028 10 16 0.00 0.00

Powered by AerisWeather